Flag for U.S.A. Weather past 2 weeks in Panama City, Florida, U.S.A.

Now
83 °F

Clear.


Feels Like: 95 °F
Forecast: 80 / 92 °F
Wind: 8 mph from Northwest

Location: Tyndall Air Force Base

Current Time: Jul 29, 2015 at 2:51:18 AM

Latest Report: Jul 29, 2015 at 1:58 AM


Visibility: 10 mi

Pressure: 29.96 "Hg

Humidity: 91%

Dew point: 80 °F

Location of Panama CityLocation

Historic Weather in Panama City — Graph

°F

Panama City temperature yesterday

Maximum temperature yesterday: 92 °F (at 1:58 PM)
Minimum temperature yesterday: 76 °F (at 4:58 AM)
Average temperature yesterday: 85 °F

Past Weeks' High & Low Weather Summary

 TemperatureHumidityPressure
High96 °F (Jul 27, 3:58 PM)100% (Jul 19, 5:03 AM)30.04 "Hg (Jul 19, 5:03 AM)
Low73 °F (Jul 27, 5:58 AM)38% (Jul 27, 3:58 PM)29.87 "Hg (Jul 14, 5:58 PM)
Average84 °F78%29.96 "Hg
* Reported Jul 14 12:58 AM — Jul 29 12:58 AM, Panama City, Weather by CustomWeather, © 2015

Note: Actual official high and low records may vary slightly from our data, if they occured in-between our weather recording intervals... More about our weather records

Advertising

Panama City weather history for previous 24 hours

 ConditionsComfort  
Time TempWeatherWind HumidityBarometerVisibility
12:58 AM
Wed, Jul 29
84 °FClear.8 mph88%29.97 "Hg10 mi
11:58 PM
Tue, Jul 28
84 °FClear.8 mph88%29.98 "Hg10 mi
10:58 PM84 °FClear.5 mph89%29.99 "Hg10 mi
9:58 PM85 °FClear.5 mph88%29.98 "Hg10 mi
8:58 PM85 °FClear.6 mph84%29.97 "Hg10 mi
7:58 PM86 °FClear.9 mph81%29.96 "Hg10 mi
6:58 PM87 °FSunny.10 mph72%29.93 "Hg10 mi
5:58 PM89 °FSunny.12 mph75%29.93 "Hg10 mi
4:58 PM92 °FSunny.10 mph61%29.94 "Hg10 mi
3:58 PM91 °FSunny.13 mph60%29.94 "Hg10 mi
2:58 PM88 °FSunny.8 mph75%29.95 "Hg10 mi
1:58 PM92 °FSunny.13 mph64%29.96 "Hg10 mi
12:58 PM90 °FScattered clouds.9 mph69%29.98 "Hg10 mi
11:58 AM89 °FSunny.8 mph69%29.98 "Hg10 mi
10:58 AM91 °FSunny.3 mph60%29.99 "Hg10 mi
9:58 AM87 °FWarm.N/A66%29.99 "HgN/A
8:58 AM84 °FPassing clouds.2 mph77%30.01 "Hg10 mi
7:58 AM81 °FPassing clouds.3 mph82%29.99 "Hg10 mi
6:58 AM78 °FWarm.N/A90%29.98 "HgN/A
5:58 AM77 °FPartly sunny.No wind89%29.97 "Hg10 mi
4:58 AM76 °FPassing clouds.No wind91%29.95 "Hg10 mi
3:58 AM77 °FWarm.N/A88%29.92 "HgN/A
2:58 AM80 °FClear.5 mph81%29.92 "Hg10 mi
Weather by CustomWeather, © 2015

See weather overviewHow to use our weather pages